Location: ?????
(31.6822°N, 34.7452°E)
Time: 00:18:31
(UTC+00:00)

Daily predictions for brighter satellites

Satellite Brightness Start Highest point End
(mag) Time Altitude Azimuth Time Altitude Azimuth Time Altitude Azimuth
CZ-4C R/B 1.8 00:05:33 81° NNW 00:05:33 81° NNW 00:10:47 10° NNE
ARIANE 5 R/B 3.0 00:00:52 10° NNE 00:05:45 50° E 00:06:34 45° SE
NPP 4.5 00:01:55 10° N 00:06:27 36° WNW 00:06:27 36° WNW
Cosmos 1656 4.1 00:06:54 47° WNW 00:06:57 48° WNW 00:12:24 10° N
ATLAS CENTAUR R/B 4.2 00:07:35 10° NNW 00:11:25 38° ENE 00:20:12 10° ESE
Cosmos 468 Rocket 4.4 00:12:13 47° WNW 00:12:13 47° WNW 00:16:52 10° N
Cosmos 1570 Rocket 3.9 00:12:35 71° S 00:13:09 82° ESE 00:18:29 10° NNE
Cosmos 1898 Rocket 4.2 00:08:07 10° N 00:13:20 54° ENE 00:16:56 20° SE
Cosmos 2369 3.5 00:13:58 69° SSW 00:14:40 85° WNW 00:20:20 10° NNE
Cosmos 2208 Rocket 4.0 00:15:11 60° SSE 00:15:58 71° ESE 00:21:13 10° NNE
Cosmos 1953 Rocket 3.5 00:17:27 80° NNW 00:17:27 80° NNW 00:21:42 10° N
Cosmos 1709 Rocket 4.4 00:17:08 42° W 00:17:21 42° W 00:23:07 10° N
Cosmos 2360 4.2 00:16:22 56° S 00:17:33 75° ESE 00:23:14 10° NNE
IDEFIX/ARIANE 42P 4.0 00:14:01 10° NE 00:18:43 32° E 00:21:38 19° SSE
SJ 16-02 1.3 00:17:38 10° NNW 00:22:05 82° ENE 00:22:21 76° SE
Cosmos 1937 Rocket 4.4 00:18:39 10° N 00:23:42 47° ENE 00:28:46 10° SE
Meteor 2-10 Rocket 3.5 00:19:47 10° NNW 00:24:55 58° W 00:24:55 58° W
Cosmos 1814 Rocket 3.9 00:30:51 52° SSW 00:32:12 90° E 00:37:34 10° NNE
Cosmos 1980 Rocket 2.2 00:31:54 44° S 00:33:44 76° ESE 00:39:21 10° NNE
Cosmos 2219 3.3 00:33:47 10° NNW 00:39:14 53° WSW 00:40:26 44° SW
STARLINK-43 3.1 00:45:27 82° WSW 00:45:35 86° NW 00:49:16 10° NE
ERS-2 2.3 00:44:32 36° SSE 00:45:51 69° ENE 00:49:30 10° N
CSL-04 DEB 4.3 00:47:40 40° S 00:49:07 80° WSW 00:53:25 10° NNW
Cosmos 540 Rocket 3.8 00:52:33 38° WSW 00:53:56 48° WNW 00:58:54 10° N
Cosmos 2297 Rocket 2.4 00:49:29 10° NNW 00:54:54 48° WSW 00:57:34 27° SSW
SL-16 R/B 4.0 00:56:01 17° W 00:56:01 17° W 00:59:08 10° NW
Cosmos 2278 3.9 00:54:13 35° WSW 00:56:17 53° WNW 01:01:49 10° N
Cosmos 489 Rocket 4.4 00:55:22 31° SSW 00:58:30 71° WNW 01:04:43 10° NNE
Cosmos 2074 Rocket 4.2 00:55:43 31° SW 00:58:34 54° W 01:04:43 10° N
Cosmos 2082 3.7 00:52:57 10° NNW 00:58:38 82° ENE 01:04:14 10° SSE
USA 234 3.2 00:53:21 10° NE 00:59:54 79° NW 01:03:45 27° SW
Landsat 5 4.3 00:56:20 10° SSE 01:00:40 56° ENE 01:05:05 10° N
Cosmos 990 Rocket 4.3 00:57:26 10° NNW 01:02:25 45° WSW 01:04:44 28° SSW
STARLINK-55 3.5 01:03:02 40° SSE 01:03:37 46° SE 01:06:41 10° NE
IRIDIUM 106 4.3 00:59:36 17° S 01:03:38 84° E 01:08:52 10° N
Cosmos 2322 Rocket 3.9 00:59:42 10° SSE 01:04:26 28° ESE 01:09:10 10° NE
Meteor 1-28 Rocket 3.1 01:03:57 36° SSW 01:05:19 62° W 01:09:04 10° NNW
Cosmos 841 Rocket 4.3 01:04:21 28° WSW 01:06:01 34° WNW 01:10:46 10° N
BREEZE-M DEB (TANK) 4.3 01:05:39 21° W 01:08:36 48° NNW 01:23:05 10° NE
CZ-2D R/B 4.0 01:05:44 10° N 01:09:39 42° WNW 01:11:00 32° WSW
Cosmos 2184 Rocket 4.4 01:07:06 27° SW 01:10:04 44° W 01:15:55 10° N
COBE Rocket 3.9 01:07:27 20° S 01:10:40 57° W 01:15:35 10° NNW
In-Cosmos 22 Rocket 4.5 01:06:20 11° S 01:11:56 71° E 01:17:36 10° NNE
STARLINK-1313 4.2 01:12:09 25° SSE 01:13:13 32° SE 01:16:02 10° ENE
SWIFT 4.4 01:14:15 13° S 01:14:15 13° S 01:15:27 10° SSE
NOSS 2-1 (C) 4.4 01:11:11 17° S 01:13:24 33° ESE 01:16:29 10° NE
STARLINK-28 2.9 01:12:40 42° SSW 01:13:34 72° SE 01:16:45 10° NE
STARLINK-1279 4.1 01:13:00 25° S 01:14:06 33° SE 01:16:56 10° ENE
ATLAS 3B R/B 4.3 01:10:36 10° WNW 01:12:42 14° W 01:12:42 14° W
STARLINK-1272 4.4 01:13:08 21° S 01:14:27 29° SE 01:17:18 10° ENE
Cosmos 1892 3.1 01:11:37 15° S 01:14:44 61° E 01:18:31 10° NNE
STARLINK-1298 4.4 01:13:36 21° SSE 01:14:48 28° SE 01:17:32 10° ENE
STARLINK-1293 4.3 01:14:26 21° S 01:15:40 29° SE 01:18:25 10° ENE
STARLINK-1207 4.4 01:14:27 21° S 01:15:50 30° SE 01:18:43 10° ENE
STARLINK-1311 3.9 01:15:39 25° S 01:16:42 34° SE 01:19:26 10° ENE
SL-08 R/B 4.0 01:15:14 27° SW 01:16:45 33° W 01:20:57 10° NW
STARLINK-1266 4.3 01:15:51 21° S 01:17:16 32° SE 01:20:11 10° ENE
STARLINK-1255 4.3 01:16:11 22° S 01:17:29 30° SE 01:20:16 10° ENE
NOSS 2-1 (D) 4.1 01:15:32 17° S 01:17:51 38° ESE 01:21:02 10° NE
STARLINK-1284 4.2 01:17:13 22° S 01:18:42 33° SE 01:21:39 10° ENE
STARLINK-1258 4.2 01:18:34 22° S 01:20:06 34° SE 01:23:05 10° ENE
STARLINK-1292 4.1 01:19:59 22° S 01:21:34 36° SE 01:24:35 10° ENE
CZ-4C R/B 3.0 01:19:55 16° S 01:22:33 61° W 01:26:08 10° NNW
Cosmos 1869 3.5 01:19:05 10° N 01:22:57 69° E 01:26:47 10° SSE
STARLINK-1274 4.0 01:21:26 22° S 01:23:04 38° SE 01:26:06 10° ENE
Cosmos 2221 2.5 01:18:46 10° N 01:23:06 84° E 01:27:27 10° S
PSLV R/B 3.8 01:19:04 10° NNE 01:23:15 64° E 01:27:23 10° S
Cosmos 1400 Rocket 3.4 01:19:36 10° NNW 01:23:28 39° W 01:25:46 21° SSW
Cosmos 1295 Rocket 4.5 01:18:13 12° SSW 01:24:07 74° W 01:30:29 10° N
STARLINK-1289 3.9 01:22:52 21° S 01:24:33 39° SE 01:27:38 10° ENE
STARLINK-41 3.0 01:24:02 29° SSW 01:25:27 67° SE 01:28:34 10° NE
Cosmos 1697 Rocket 4.3 01:23:11 14° W 01:25:42 19° WNW 01:29:36 10° NNW
PAYLOAD A 4.4 01:21:17 10° NNE 01:25:53 57° E 01:30:33 10° S
STARLINK-1303 3.9 01:24:15 21° S 01:26:01 41° SE 01:29:07 10° ENE
STARLINK-1312 3.8 01:25:42 21° SSW 01:27:30 43° SE 01:30:37 10° ENE
Cosmos 2227 Rocket 3.1 01:25:39 10° NW 01:30:17 26° WSW 01:33:57 14° SSW
STARLINK-33 2.8 01:28:58 27° SW 01:30:33 82° NW 01:33:45 10° NE
SL-16 R/B 2.6 01:25:27 10° S 01:31:01 64° ESE 01:36:38 10° NNE
ADEOS II 4.1 01:30:04 10° NW 01:32:08 12° WNW 01:34:07 10° W
Cosmos 2151 4.2 01:31:29 10° SSE 01:35:28 42° E 01:39:29 10° NNE
Cosmos 2150 Rocket 4.2 01:30:35 10° NNW 01:35:45 73° ENE 01:40:52 10° SSE
STARLINK-1254 4.3 01:31:58 10° NW 01:36:03 59° NE 01:40:07 10° SE
GPS 2-04 Rocket1 4.3 01:36:45 17° SW 01:37:01 17° SSW 01:39:49 10° S
MSX 3.9 01:32:47 10° N 01:38:28 61° WNW 01:44:05 10° SSW
STARLINK-66 3.1 01:37:08 21° WSW 01:39:02 61° NW 01:42:12 10° NE
H-2A R/B 2.7 01:36:02 12° SSW 01:39:31 33° W 01:43:28 10° NNW
STARLINK-1231 4.0 01:36:56 10° NW 01:41:03 66° NE 01:45:09 10° SE
SAR-Lupe-4 3.5 01:38:29 10° SSE 01:42:03 89° WSW 01:45:39 10° NNW
STARLINK-1228 4.3 01:39:47 10° WNW 01:42:22 21° SW 01:44:57 10° S
Cosmos 1315 Rocket 2.7 01:39:33 10° NNW 01:43:27 73° W 01:47:20 10° S
STARLINK-1234 4.2 01:41:18 11° WNW 01:43:32 20° SW 01:45:54 10° S
ARIANE 5 R/B 4.3 01:41:38 10° NNW 01:44:21 15° WNW 01:46:55 10° W
CZ-2C R/B 4.1 01:41:47 10° NNW 01:44:41 22° WNW 01:46:42 15° WSW
Skynet4D Del rocket 3.9 01:40:30 15° WSW 01:44:52 48° S 01:49:59 10° E
STARLINK-1212 3.6 01:42:12 10° WNW 01:44:57 29° SW 01:47:42 10° S
STARLINK-1105 3.7 01:42:41 10° WNW 01:45:25 29° SW 01:48:08 10° S
STARLINK-1209 4.4 01:44:33 15° W 01:45:48 18° SW 01:48:03 10° S
STARLINK-1232 3.8 01:41:54 10° NW 01:46:01 75° NE 01:50:09 10° SE
STARLINK-1247 3.7 01:43:37 10° WNW 01:46:21 28° SW 01:49:05 10° S
SL-8 Rocket 4.1 01:40:16 10° S 01:46:35 85° E 01:52:55 10° N
STARLINK-1227 3.7 01:44:05 10° WNW 01:46:47 28° SW 01:49:28 10° S
STARLINK-1226 3.8 01:44:57 10° WNW 01:47:39 27° SW 01:50:21 10° S
STARLINK-1215 3.8 01:45:55 10° WNW 01:48:36 26° SW 01:51:15 10° S
deb Chang Zheng 4 3.8 01:45:04 10° N 01:49:14 50° WNW 01:53:21 10° SSW
STARLINK-75 3.3 01:47:43 16° WSW 01:50:08 52° NW 01:53:17 10° NNE
STARLINK-1217 3.9 01:47:42 10° WNW 01:50:20 25° SW 01:52:58 10° S
STARLINK-1208 3.7 01:46:50 10° NW 01:50:59 84° NE 01:55:07 10° SE
STARLINK-1229 3.9 01:48:39 10° WNW 01:51:16 25° SW 01:53:52 10° S
STARLINK-1270 3.9 01:49:32 10° WNW 01:52:07 24° SW 01:54:43 10° S
ASTRO E2 4.3 01:50:32 13° SW 01:52:08 16° SSW 01:54:42 10° SSE
Cosmos 2058 3.6 01:48:40 11° SSW 01:52:15 36° W 01:56:08 10° NNW
STARLINK-1189 4.0 01:51:25 10° WNW 01:53:58 23° SW 01:56:29 10° S
STARLINK-1188 4.1 01:52:19 10° WNW 01:54:50 22° SW 01:57:20 10° S
CZ-4C R/B 4.3 01:53:55 10° NW 01:54:57 10° NW 01:56:01 10° NNW
STARLINK-1235 4.5 01:53:27 10° W 01:55:25 16° SW 01:57:24 10° SSW
STARLINK-1187 4.3 01:53:38 10° W 01:55:53 18° SW 01:58:07 10° S
STARLINK-1271 3.6 01:51:50 10° NW 01:55:59 87° SW 02:00:07 10° SE
STARLINK-1191 4.1 01:54:52 10° WNW 01:57:16 21° SW 01:59:39 10° S
Cosmos 2298 Rocket 4.1 01:52:07 10° NNW 01:57:20 61° WSW 02:02:33 10° S
Lacrosse 4 Rocket 1.6 01:53:21 10° NW 01:57:28 48° WSW 02:01:26 10° S
SAR-Lupe-1 4.1 01:54:35 10° S 01:58:03 56° W 02:01:32 10° NNW
IDEFIX/ARIANE 42P 3.8 01:53:54 10° NNW 01:58:04 24° WNW 02:02:13 10° WSW
STARLINK-1221 4.2 01:55:45 10° WNW 01:58:08 20° SW 02:00:31 10° S
STARLINK-1301 3.3 01:55:59 12° SW 01:58:58 59° NW 02:02:17 10° NE
STARLINK-1222 4.2 01:56:41 10° WNW 01:59:02 20° SW 02:01:22 10° S
STARLINK-1214 4.2 01:57:37 10° WNW 01:59:55 19° SW 02:02:13 10° S
STARLINK-1307 3.1 01:56:56 12° SW 02:00:03 69° NW 02:03:25 10° NE
STARLINK-22 3.2 01:57:21 12° WSW 02:00:14 55° NW 02:03:22 10° NE
STARLINK-1154 3.5 01:56:49 10° NW 02:00:57 77° SW 02:05:04 10° SE
Shenzhou-11 Module 3.4 01:59:08 10° SSW 02:01:07 22° SE 02:03:07 10° E
STARLINK-58 2.9 01:58:43 10° SW 02:01:53 81° SE 02:05:03 10° NE
STARLINK-1290 3.2 01:59:07 11° SW 02:02:19 64° NW 02:05:40 10° NE
STARLINK-80 3.8 01:59:58 10° WSW 02:03:35 51° NW 02:07:18 10° NNE
STARLINK-1297 3.3 02:01:09 10° SW 02:04:26 60° NW 02:07:46 10° NE
STARLINK-1197 3.6 02:01:48 10° NW 02:05:55 68° SW 02:10:01 10° SSE
Cosmos 1484 Rocket 4.0 02:03:32 10° NNE 02:07:17 44° E 02:11:04 10° S
NOSS 2-1 (E) 3.3 02:03:53 10° SW 02:07:20 49° WNW 02:10:38 10° NNE
Uosat 12 SS-18 rocket 4.1 02:03:31 10° NNW 02:07:53 69° WSW 02:12:48 10° SSE
Cosmos 1689 Rocket 3.1 02:05:38 10° SSE 02:08:27 50° ENE 02:11:18 10° N
Cosmos 1408 3.2 02:05:48 10° SSW 02:09:16 38° W 02:12:44 10° NNW
STARLINK-64 4.1 02:06:22 10° SSW 02:09:47 44° SE 02:13:13 10° NE
Cosmos 2360 Rocket 2.9 02:04:44 10° S 02:10:11 57° ESE 02:15:41 10° NNE
Meteor 2-12 Rocket 4.5 02:04:16 10° S 02:10:19 87° W 02:16:23 10° N
STARLINK-1198 3.6 02:06:46 10° NW 02:10:51 60° SW 02:14:55 10° SSE
ADEOS 3.7 02:08:34 10° N 02:13:40 58° WNW 02:18:46 10° SSW
STARLINK-1199 3.7 02:11:49 10° NW 02:15:51 53° SW 02:19:52 10° SSE
